Time,TemperatureF,DewpointF,PressureIn,WindDirection,WindDirectionDegrees,WindSpeedMPH,WindSpeedGustMPH,Humidity,HourlyPrecipIn,Conditions,Clouds,dailyrainin,SoftwareType,DateUTC
2013-01-16 00:02:00,30.0,16.0,30.32,NE,56,0.0,2.0,56,0.00,,,0.01,,2013-01-16 08:02:00,
2013-01-16 00:11:00,30.0,16.0,30.32,NE,56,0.0,2.0,56,0.00,,,0.01,,2013-01-16 08:11:00,
2013-01-16 00:22:00,30.0,16.0,30.32,North,353,0.0,5.0,55,0.00,,,0.01,,2013-01-16 08:22:00,
2013-01-16 00:32:00,32.0,18.0,30.32,East,83,2.0,11.0,55,0.00,,,0.01,,2013-01-16 08:32:00,
2013-01-16 00:42:00,32.0,18.0,30.32,East,83,2.0,11.0,55,0.00,,,0.01,,2013-01-16 08:42:00,
2013-01-16 00:52:00,32.0,18.0,30.32,NNE,30,0.0,11.0,55,0.00,,,0.01,,2013-01-16 08:52:00,
2013-01-16 01:02:00,32.0,17.0,30.31,North,3,0.0,5.0,53,0.00,,,0.01,,2013-01-16 09:02:00,
2013-01-16 01:11:00,32.0,17.0,30.31,North,3,0.0,5.0,53,0.00,,,0.01,,2013-01-16 09:11:00,
2013-01-16 01:22:00,32.0,17.0,30.31,North,3,0.0,5.0,53,0.00,,,0.01,,2013-01-16 09:22:00,
2013-01-16 01:32:00,31.0,17.0,30.32,NE,44,0.0,7.0,55,0.00,,,0.01,,2013-01-16 09:32:00,
2013-01-16 01:42:00,31.0,17.0,30.32,NE,44,0.0,7.0,55,0.00,,,0.01,,2013-01-16 09:42:00,
2013-01-16 01:52:00,31.0,17.0,30.32,NNE,27,0.0,2.0,55,0.00,,,0.01,,2013-01-16 09:52:00,
2013-01-16 02:02:00,30.0,16.0,30.31,NNE,20,0.0,1.0,56,0.00,,,0.01,,2013-01-16 10:02:00,
2013-01-16 02:11:00,30.0,16.0,30.31,NNE,20,0.0,1.0,56,0.00,,,0.01,,2013-01-16 10:11:00,
2013-01-16 02:22:00,30.0,17.0,30.31,NNE,13,0.0,0.0,57,0.00,,,0.01,,2013-01-16 10:22:00,
2013-01-16 02:32:00,30.0,17.0,30.31,NNE,28,0.0,0.0,57,0.00,,,0.01,,2013-01-16 10:32:00,
2013-01-16 02:42:00,30.0,17.0,30.31,NNE,28,0.0,0.0,57,0.00,,,0.01,,2013-01-16 10:42:00,
2013-01-16 02:52:00,29.0,16.0,30.31,NNE,28,0.0,0.0,57,0.00,,,0.01,,2013-01-16 10:52:00,
2013-01-16 03:02:00,29.0,16.0,30.31,NNE,30,0.0,0.0,58,0.00,,,0.01,,2013-01-16 11:02:00,
2013-01-16 03:11:00,29.0,16.0,30.31,NNE,30,0.0,0.0,58,0.00,,,0.01,,2013-01-16 11:11:00,
2013-01-16 03:22:00,29.0,16.0,30.31,NNE,28,0.0,0.0,58,0.00,,,0.01,,2013-01-16 11:22:00,
2013-01-16 03:32:00,29.0,16.0,30.31,NNE,28,0.0,0.0,58,0.00,,,0.01,,2013-01-16 11:32:00,
2013-01-16 03:42:00,29.0,16.0,30.31,NNE,28,0.0,0.0,58,0.00,,,0.01,,2013-01-16 11:42:00,
2013-01-16 03:52:00,29.0,16.0,30.30,NNE,16,0.0,0.0,57,0.00,,,0.01,,2013-01-16 11:52:00,
2013-01-16 04:03:00,29.0,16.0,30.30,NNE,24,0.0,2.0,58,0.00,,,0.01,,2013-01-16 12:03:00,
2013-01-16 04:12:00,29.0,16.0,30.30,NNE,24,0.0,2.0,58,0.00,,,0.01,,2013-01-16 12:12:00,
2013-01-16 04:22:00,28.0,15.0,30.30,NNE,27,0.0,0.0,58,0.00,,,0.01,,2013-01-16 12:22:00,
2013-01-16 04:32:00,28.0,16.0,30.30,North,10,0.0,0.0,60,0.00,,,0.01,,2013-01-16 12:32:00,
2013-01-16 04:42:00,28.0,16.0,30.30,North,10,0.0,0.0,60,0.00,,,0.01,,2013-01-16 12:42:00,
2013-01-16 04:52:00,27.0,15.0,30.30,North,10,0.0,0.0,61,0.00,,,0.01,,2013-01-16 12:52:00,
2013-01-16 05:02:00,27.0,16.0,30.30,North,10,0.0,0.0,62,0.00,,,0.01,,2013-01-16 13:02:00,
2013-01-16 05:12:00,27.0,16.0,30.30,North,10,0.0,0.0,62,0.00,,,0.01,,2013-01-16 13:12:00,
2013-01-16 05:22:00,27.0,15.0,30.30,North,10,0.0,0.0,61,0.00,,,0.01,,2013-01-16 13:22:00,
2013-01-16 05:32:00,27.0,15.0,30.30,North,10,0.0,0.0,61,0.00,,,0.01,,2013-01-16 13:32:00,
2013-01-16 05:42:00,27.0,15.0,30.30,North,10,0.0,0.0,61,0.00,,,0.01,,2013-01-16 13:42:00,
2013-01-16 05:52:00,27.0,15.0,30.30,North,10,0.0,0.0,61,0.00,,,0.01,,2013-01-16 13:52:00,
2013-01-16 06:02:00,27.0,15.0,30.30,North,10,0.0,0.0,60,0.00,,,0.01,,2013-01-16 14:02:00,
2013-01-16 06:12:00,27.0,15.0,30.30,North,10,0.0,0.0,60,0.00,,,0.01,,2013-01-16 14:12:00,
2013-01-16 06:22:00,28.0,16.0,30.30,NNE,17,0.0,0.0,59,0.00,,,0.01,,2013-01-16 14:22:00,
2013-01-16 06:32:00,28.0,16.0,30.30,North,11,0.0,0.0,60,0.00,,,0.01,,2013-01-16 14:32:00,
2013-01-16 06:42:00,28.0,16.0,30.30,North,11,0.0,0.0,60,0.00,,,0.01,,2013-01-16 14:42:00,
2013-01-16 06:53:00,27.0,15.0,30.30,North,1,0.0,0.0,59,0.00,,,0.01,,2013-01-16 14:53:00,
2013-01-16 07:02:00,28.0,16.0,30.30,North,0,0.0,2.0,59,0.00,,,0.01,,2013-01-16 15:02:00,
2013-01-16 07:12:00,28.0,16.0,30.30,North,0,0.0,2.0,59,0.00,,,0.01,,2013-01-16 15:12:00,
2013-01-16 07:22:00,28.0,16.0,30.30,North,0,0.0,2.0,59,0.00,,,0.01,,2013-01-16 15:22:00,
2013-01-16 07:32:00,28.0,15.0,30.31,North,7,0.0,1.0,58,0.00,,,0.01,,2013-01-16 15:32:00,
2013-01-16 07:42:00,28.0,15.0,30.31,North,7,0.0,1.0,58,0.00,,,0.01,,2013-01-16 15:42:00,
2013-01-16 07:53:00,27.0,14.0,30.31,NNE,28,0.0,1.0,58,0.00,,,0.01,,2013-01-16 15:53:00,
2013-01-16 08:03:00,28.0,15.0,30.31,NE,48,0.0,0.0,58,0.00,,,0.01,,2013-01-16 16:03:00,
2013-01-16 08:11:00,28.0,15.0,30.31,NE,48,0.0,0.0,58,0.00,,,0.01,,2013-01-16 16:11:00,
2013-01-16 08:22:00,28.0,15.0,30.31,NE,48,0.0,0.0,58,0.00,,,0.01,,2013-01-16 16:22:00,
2013-01-16 08:32:00,36.0,21.0,30.31,NE,37,0.0,0.0,55,0.00,,,0.01,,2013-01-16 16:32:00,
2013-01-16 08:42:00,36.0,21.0,30.31,NE,37,0.0,0.0,55,0.00,,,0.01,,2013-01-16 16:42:00,
2013-01-16 08:53:00,38.0,23.0,30.32,NE,49,0.0,0.0,55,0.00,,,0.01,,2013-01-16 16:53:00,
2013-01-16 09:02:00,40.0,25.0,30.32,NE,38,1.0,1.0,55,0.00,,,0.01,,2013-01-16 17:02:00,
2013-01-16 09:22:00,41.0,26.0,30.32,North,11,0.0,5.0,55,0.00,,,0.01,,2013-01-16 17:22:00,
2013-01-16 09:33:00,41.0,13.0,30.32,NNE,18,1.0,0.0,31,0.00,,,0.01,,2013-01-16 17:33:00,
2013-01-16 09:43:00,41.0,13.0,30.32,NNE,18,1.0,0.0,31,0.00,,,0.01,,2013-01-16 17:43:00,
2013-01-16 09:53:00,42.0,12.0,30.31,NNE,18,0.0,2.0,29,0.00,,,0.01,,2013-01-16 17:53:00,
2013-01-16 10:02:00,43.0,13.0,30.31,NE,45,1.0,4.0,29,0.00,,,0.01,,2013-01-16 18:02:00,
2013-01-16 10:12:00,43.0,13.0,30.31,NE,45,1.0,4.0,29,0.00,,,0.01,,2013-01-16 18:12:00,
2013-01-16 10:22:00,43.0,13.0,30.31,NE,38,1.0,4.0,29,0.00,,,0.01,,2013-01-16 18:22:00,
2013-01-16 10:33:00,44.0,12.0,30.31,NE,47,0.0,5.0,27,0.00,,,0.01,,2013-01-16 18:33:00,
2013-01-16 10:42:00,44.0,12.0,30.31,NE,47,0.0,5.0,27,0.00,,,0.01,,2013-01-16 18:42:00,
2013-01-16 10:52:00,45.0,14.0,30.31,NNE,27,0.0,6.0,28,0.00,,,0.01,,2013-01-16 18:52:00,
2013-01-16 11:02:00,46.0,14.0,30.30,NNE,23,2.0,7.0,27,0.00,,,0.01,,2013-01-16 19:02:00,
2013-01-16 11:12:00,46.0,14.0,30.30,NNE,23,2.0,7.0,27,0.00,,,0.01,,2013-01-16 19:12:00,
2013-01-16 11:22:00,46.0,14.0,30.30,NE,47,2.0,10.0,27,0.00,,,0.01,,2013-01-16 19:22:00,
2013-01-16 11:32:00,47.0,15.0,30.29,NNE,16,2.0,6.0,27,0.00,,,0.00,,2013-01-16 19:32:00,
2013-01-16 11:42:00,47.0,15.0,30.29,NNE,16,2.0,6.0,27,0.00,,,0.00,,2013-01-16 19:42:00,
2013-01-16 11:52:00,47.0,15.0,30.28,NE,41,0.0,6.0,27,0.00,,,0.00,,2013-01-16 19:52:00,
2013-01-16 12:02:00,47.0,15.0,30.28,NE,40,2.0,10.0,27,0.00,,,0.00,,2013-01-16 20:02:00,
2013-01-16 12:11:00,47.0,15.0,30.28,NE,40,2.0,10.0,27,0.00,,,0.00,,2013-01-16 20:11:00,
2013-01-16 12:22:00,48.0,14.0,30.27,ENE,69,2.0,6.0,25,0.00,,,0.00,,2013-01-16 20:22:00,
2013-01-16 12:32:00,48.0,16.0,30.27,NNE,18,0.0,9.0,27,0.00,,,0.00,,2013-01-16 20:32:00,
2013-01-16 12:42:00,48.0,16.0,30.27,NNE,18,0.0,9.0,27,0.00,,,0.00,,2013-01-16 20:42:00,
2013-01-16 12:53:00,49.0,15.0,30.27,ENE,69,1.0,6.0,25,0.00,,,0.00,,2013-01-16 20:53:00,
2013-01-16 13:02:00,48.0,15.0,30.27,East,100,1.0,6.0,26,0.00,,,0.00,,2013-01-16 21:02:00,
2013-01-16 13:12:00,48.0,15.0,30.27,East,100,1.0,6.0,26,0.00,,,0.00,,2013-01-16 21:12:00,
2013-01-16 13:22:00,48.0,15.0,30.27,East,100,1.0,6.0,26,0.00,,,0.00,,2013-01-16 21:22:00,
2013-01-16 13:32:00,48.0,13.0,30.25,NE,34,0.0,7.0,24,0.00,,,0.00,,2013-01-16 21:32:00,
2013-01-16 13:42:00,48.0,13.0,30.25,NE,34,0.0,7.0,24,0.00,,,0.00,,2013-01-16 21:42:00,
2013-01-16 13:52:00,49.0,14.0,30.25,NE,47,1.0,4.0,24,0.00,,,0.00,,2013-01-16 21:52:00,
2013-01-16 14:02:00,49.0,14.0,30.25,North,0,2.0,7.0,24,0.00,,,0.00,,2013-01-16 22:02:00,
2013-01-16 14:11:00,49.0,14.0,30.25,North,0,2.0,7.0,24,0.00,,,0.00,,2013-01-16 22:11:00,
2013-01-16 14:22:00,49.0,14.0,30.24,NE,37,1.0,7.0,24,0.00,,,0.00,,2013-01-16 22:22:00,
2013-01-16 14:32:00,49.0,13.0,30.25,East,92,0.0,7.0,23,0.00,,,0.00,,2013-01-16 22:32:00,
2013-01-16 14:42:00,49.0,13.0,30.25,East,92,0.0,7.0,23,0.00,,,0.00,,2013-01-16 22:42:00,
2013-01-16 14:52:00,49.0,13.0,30.24,ENE,64,0.0,2.0,23,0.00,,,0.00,,2013-01-16 22:52:00,
2013-01-16 15:02:00,47.0,11.0,30.24,NE,51,2.0,6.0,23,0.00,,,0.00,,2013-01-16 23:02:00,
2013-01-16 15:12:00,48.0,12.0,30.24,NE,51,0.0,2.0,23,0.00,,,0.00,,2013-01-16 23:12:00,
2013-01-16 15:22:00,48.0,12.0,30.24,NE,51,0.0,2.0,23,0.00,,,0.00,,2013-01-16 23:22:00,
2013-01-16 15:32:00,47.0,12.0,30.24,NE,38,1.0,5.0,24,0.00,,,0.00,,2013-01-16 23:32:00,
2013-01-16 15:42:00,47.0,12.0,30.24,NE,38,1.0,5.0,24,0.00,,,0.00,,2013-01-16 23:42:00,
2013-01-16 15:53:00,47.0,12.0,30.25,NNE,14,1.0,7.0,24,0.00,,,0.00,,2013-01-16 23:53:00,
2013-01-16 16:02:00,47.0,12.0,30.25,ENE,73,1.0,7.0,24,0.00,,,0.00,,2013-01-17 00:02:00,
2013-01-16 16:11:00,47.0,12.0,30.25,ENE,73,1.0,7.0,24,0.00,,,0.00,,2013-01-17 00:11:00,
2013-01-16 16:22:00,45.0,11.0,30.25,NNE,16,0.0,2.0,25,0.00,,,0.00,,2013-01-17 00:22:00,
2013-01-16 16:32:00,44.0,10.0,30.26,North,6,2.0,7.0,25,0.00,,,0.00,,2013-01-17 00:32:00,
2013-01-16 16:42:00,44.0,10.0,30.26,North,6,2.0,7.0,25,0.00,,,0.00,,2013-01-17 00:42:00,
2013-01-16 16:52:00,44.0,10.0,30.26,North,6,2.0,7.0,25,0.00,,,0.00,,2013-01-17 00:52:00,
2013-01-16 17:02:00,41.0,10.0,30.26,North,8,0.0,1.0,28,0.00,,,0.00,,2013-01-17 01:02:00,
2013-01-16 17:11:00,41.0,10.0,30.26,North,8,0.0,1.0,28,0.00,,,0.00,,2013-01-17 01:11:00,
2013-01-16 17:22:00,40.0,10.0,30.26,NNE,23,0.0,1.0,29,0.00,,,0.00,,2013-01-17 01:22:00,
2013-01-16 17:32:00,39.0,9.0,30.26,ENE,66,0.0,2.0,29,0.00,,,0.00,,2013-01-17 01:32:00,
2013-01-16 17:42:00,39.0,9.0,30.26,ENE,66,0.0,2.0,29,0.00,,,0.00,,2013-01-17 01:42:00,
2013-01-16 17:52:00,38.0,9.0,30.26,NNE,27,0.0,4.0,29,0.00,,,0.00,,2013-01-17 01:52:00,
2013-01-16 18:02:00,38.0,10.0,30.26,NNE,27,0.0,1.0,31,0.00,,,0.00,,2013-01-17 02:02:00,
2013-01-16 18:12:00,38.0,10.0,30.26,NNE,27,0.0,1.0,31,0.00,,,0.00,,2013-01-17 02:12:00,
2013-01-16 18:22:00,37.0,9.0,30.27,NNE,30,0.0,0.0,31,0.00,,,0.00,,2013-01-17 02:22:00,
2013-01-16 18:32:00,36.0,6.0,30.28,NNE,30,0.0,0.0,28,0.00,,,0.00,,2013-01-17 02:32:00,
2013-01-16 18:43:00,36.0,6.0,30.28,NNE,30,0.0,0.0,28,0.00,,,0.00,,2013-01-17 02:43:00,
2013-01-16 18:52:00,36.0,6.0,30.28,NNE,30,0.0,0.0,28,0.00,,,0.00,,2013-01-17 02:52:00,
2013-01-16 19:02:00,36.0,5.0,30.28,North,10,0.0,0.0,27,0.00,,,0.00,,2013-01-17 03:02:00,
2013-01-16 19:11:00,36.0,5.0,30.28,North,10,0.0,0.0,27,0.00,,,0.00,,2013-01-17 03:11:00,
2013-01-16 19:22:00,36.0,5.0,30.28,North,10,0.0,0.0,27,0.00,,,0.00,,2013-01-17 03:22:00,
2013-01-16 19:32:00,36.0,4.0,30.28,NNE,23,0.0,0.0,25,0.00,,,0.00,,2013-01-17 03:32:00,
2013-01-16 19:42:00,36.0,4.0,30.28,NNE,23,0.0,0.0,25,0.00,,,0.00,,2013-01-17 03:42:00,
2013-01-16 19:52:00,36.0,3.0,30.29,NNE,23,0.0,0.0,24,0.00,,,0.00,,2013-01-17 03:52:00,
2013-01-16 20:02:00,37.0,4.0,30.28,NE,40,0.0,0.0,24,0.00,,,0.00,,2013-01-17 04:02:00,
2013-01-16 20:12:00,37.0,4.0,30.29,East,89,0.0,0.0,24,0.00,,,0.00,,2013-01-17 04:12:00,
2013-01-16 20:22:00,37.0,4.0,30.29,East,89,0.0,0.0,24,0.00,,,0.00,,2013-01-17 04:22:00,
2013-01-16 20:32:00,36.0,3.0,30.29,NE,54,0.0,0.0,24,0.00,,,0.00,,2013-01-17 04:32:00,
2013-01-16 20:42:00,36.0,3.0,30.29,NE,54,0.0,0.0,24,0.00,,,0.00,,2013-01-17 04:42:00,
2013-01-16 20:52:00,36.0,4.0,30.28,North,0,0.0,1.0,25,0.00,,,0.00,,2013-01-17 04:52:00,
2013-01-16 21:03:00,36.0,4.0,30.28,NE,34,0.0,0.0,25,0.00,,,0.00,,2013-01-17 05:03:00,
2013-01-16 21:12:00,36.0,4.0,30.28,NE,34,0.0,0.0,25,0.00,,,0.00,,2013-01-17 05:12:00,
2013-01-16 21:22:00,35.0,3.0,30.28,NNE,32,0.0,2.0,25,0.00,,,0.00,,2013-01-17 05:22:00,
2013-01-16 21:32:00,33.0,3.0,30.28,NNE,17,0.0,2.0,28,0.00,,,0.00,,2013-01-17 05:32:00,
2013-01-16 21:42:00,33.0,3.0,30.28,NNE,17,0.0,2.0,28,0.00,,,0.00,,2013-01-17 05:42:00,
2013-01-16 21:52:00,32.0,3.0,30.28,NNE,28,0.0,2.0,28,0.00,,,0.00,,2013-01-17 05:52:00,
2013-01-16 22:02:00,32.0,5.0,30.27,NNE,21,0.0,0.0,31,0.00,,,0.00,,2013-01-17 06:02:00,
2013-01-16 22:11:00,32.0,5.0,30.28,NNE,21,0.0,0.0,31,0.00,,,0.00,,2013-01-17 06:11:00,
2013-01-16 22:22:00,32.0,5.0,30.28,NNE,21,0.0,0.0,31,0.00,,,0.00,,2013-01-17 06:22:00,
2013-01-16 22:32:00,32.0,5.0,30.28,NNE,21,0.0,0.0,31,0.00,,,0.00,,2013-01-17 06:32:00,
2013-01-16 22:42:00,32.0,5.0,30.28,NNE,21,0.0,0.0,31,0.00,,,0.00,,2013-01-17 06:42:00,
2013-01-16 22:52:00,32.0,5.0,30.28,NNE,30,0.0,0.0,31,0.00,,,0.00,,2013-01-17 06:52:00,
2013-01-16 23:02:00,33.0,3.0,30.27,NE,34,0.0,1.0,28,0.00,,,0.00,,2013-01-17 07:02:00,
2013-01-16 23:11:00,33.0,3.0,30.27,NE,34,0.0,1.0,28,0.00,,,0.00,,2013-01-17 07:11:00,
2013-01-16 23:22:00,32.0,3.0,30.27,NNE,32,0.0,2.0,28,0.00,,,0.00,,2013-01-17 07:22:00,
2013-01-16 23:32:00,32.0,3.0,30.27,NNE,24,0.0,2.0,28,0.00,,,0.00,,2013-01-17 07:32:00,
2013-01-16 23:42:00,32.0,3.0,30.27,NNE,24,0.0,2.0,28,0.00,,,0.00,,2013-01-17 07:42:00,
2013-01-16 23:52:00,32.0,3.0,30.27,NNE,24,0.0,0.0,29,0.00,,,0.00,,2013-01-17 07:52:00,